Location: Franklinton
(36.1018°N, 78.4581°W)
Time: 09:57:30
(UTC-04:00)

Envisat - Visible Passes

Search period start: 15 October 2019 00:00
Search period end: 25 October 2019 00:00
Orbit: 764 x 766 km, 98.1° (Epoch: 15 October)

Date Brightness Start Highest point End Pass type
(mag) Time Alt. Az. Time Alt. Az. Time Alt. Az.
15 Oct 4.3 19:54:54 10° S 19:59:42 43° W 20:04:33 10° NNW visible
16 Oct 2.9 19:17:51 10° SSE 19:22:56 80° ENE 19:28:01 10° N visible
17 Oct 5.3 20:21:18 10° SSW 20:25:20 24° W 20:29:25 10° NW visible
18 Oct 6.4 06:54:44 10° ENE 06:57:26 14° E 07:00:07 10° SE visible
18 Oct 3.7 19:43:27 10° S 19:48:25 56° W 19:53:26 10° NNW visible
19 Oct 3.0 19:06:42 10° SSE 19:11:41 62° ENE 19:16:42 10° N visible
19 Oct 6.1 20:48:51 10° WSW 20:51:04 13° W 20:53:18 10° WNW visible
20 Oct 4.9 20:09:34 10° SSW 20:14:00 30° W 20:18:29 10° NW visible
21 Oct 6.7 06:44:53 10° ENE 06:46:03 11° E 06:47:13 10° ESE visible
21 Oct 3.2 19:32:05 10° S 19:37:09 73° WSW 19:42:13 10° NNW visible
22 Oct 3.2 18:55:37 10° SE 19:00:28 48° ENE 19:05:20 10° N visible
22 Oct 5.8 20:36:29 10° SW 20:39:42 17° W 20:42:55 10° NW visible
23 Oct 4.4 19:57:58 10° SSW 20:02:41 39° W 20:07:27 10° NNW visible
24 Oct 3.0 19:20:49 10° SSE 19:25:53 87° ENE 19:30:59 10° NNW visible
